PA1CD-13 Weather Reports


Display with metric or nautical units.
time (UTC)temp
F
wind
direction
speed
MPH
gust
MPH
rain 1hr
in
rain 24hr
in
rain mn
in
humidity
%
barometer
mb
20260506163405 56 63 6.0 16.0 0.00 0.00 0.00 62 1009.7
20260506163206 56 0 5.0 16.0 0.00 0.00 0.00 61 1009.7
20260506163007 56 114 7.0 16.0 0.00 0.00 0.00 62 1009.6
20260506162805 56 61 9.0 16.0 0.00 0.00 0.00 62 1009.6
20260506162605 56 68 5.0 13.0 0.00 0.00 0.00 62 1009.6
20260506162406 56 65 7.0 13.0 0.00 0.00 0.00 62 1009.7
20260506162205 56 0 6.0 13.0 0.00 0.00 0.00 62 1009.7
20260506162006 56 72 7.0 16.0 0.00 0.00 0.00 62 1009.7
20260506161805 56 0 9.0 16.0 0.00 0.00 0.00 62 1009.7
20260506161606 56 71 8.0 16.0 0.00 0.00 0.00 61 1009.6
20260506161406 56 0 7.0 16.0 0.00 0.00 0.00 62 1009.7
20260506161201 56 58 10.0 16.0 0.00 0.00 0.00 62 1009.7
20260506161007 56 68 9.0 16.0 0.00 0.00 0.00 62 1009.7
20260506160806 56 99 7.0 16.0 0.00 0.00 0.00 62 1009.6
20260506160605 56 0 4.0 13.0 0.00 0.00 0.00 62 1009.6
20260506160405 56 0 6.0 13.0 0.00 0.00 0.00 62 1009.6
20260506160205 56 0 7.0 13.0 0.00 0.00 0.00 62 1009.6
20260506160007 56 69 8.0 14.0 0.00 0.00 0.00 62 1009.6
20260506155806 57 0 5.0 15.0 0.00 0.00 0.00 62 1009.6
20260506155604 57 0 5.0 15.0 0.00 0.00 0.00 62 1009.6
20260506155405 57 79 8.0 15.0 0.00 0.00 0.00 62 1009.7
20260506155205 57 0 12.0 15.0 0.00 0.00 0.00 62 1009.6
20260506155006 57 0 10.0 15.0 0.00 0.00 0.00 62 1009.7
20260506154805 57 66 8.0 16.0 0.00 0.00 0.00 62 1009.7
20260506154606 56 76 5.0 16.0 0.00 0.00 0.00 62 1009.7
20260506154406 56 68 7.0 16.0 0.00 0.00 0.00 62 1009.6
20260506154206 56 114 8.0 16.0 0.00 0.00 0.00 62 1009.6
20260506154006 56 68 11.0 16.0 0.00 0.00 0.00 63 1009.6
20260506153805 56 72 9.0 16.0 0.00 0.00 0.00 63 1009.6
20260506153539 56 62 8.0 16.0 0.00 0.00 0.00 62 1009.6
20260506153337 56 79 6.0 14.0 0.00 0.00 0.00 62 1009.6
20260506153138 56 0 7.0 14.0 0.00 0.00 0.00 62 1009.6
20260506152937 56 107 6.0 16.0 0.00 0.00 0.00 63 1009.6
20260506152738 57 59 5.0 16.0 0.00 0.00 0.00 62 1009.6
20260506152539 57 0 6.0 16.0 0.00 0.00 0.00 62 1009.5
20260506152337 57 65 10.0 16.0 0.00 0.00 0.00 61 1009.6
20260506152137 57 0 12.0 16.0 0.00 0.00 0.00 62 1009.6
20260506151937 57 106 4.0 14.0 0.00 0.00 0.00 61 1009.5
20260506151737 58 68 3.0 14.0 0.00 0.00 0.00 62 1009.6
20260506151539 58 56 3.0 15.0 0.00 0.00 0.00 62 1009.5
20260506151338 58 72 8.0 15.0 0.00 0.00 0.00 62 1009.6
20260506151138 58 71 6.0 15.0 0.00 0.00 0.00 61 1009.6
20260506150937 58 0 3.0 15.0 0.00 0.00 0.00 61 1009.6
20260506150737 58 66 8.0 16.0 0.00 0.00 0.00 60 1009.6
20260506150539 58 61 7.0 16.0 0.00 0.00 0.00 60 1009.5
20260506150336 58 0 7.0 16.0 0.00 0.00 0.00 61 1009.5
20260506150137 58 0 6.0 16.0 0.00 0.00 0.00 60 1009.5
20260506145937 58 0 8.0 16.0 0.00 0.00 0.00 62 1009.5
20260506145738 58 0 10.0 16.0 0.00 0.00 0.00 61 1009.5
20260506145539 58 82 8.0 16.0 0.00 0.00 0.00 62 1009.4
20260506145338 58 0 8.0 17.0 0.00 0.00 0.00 61 1009.4
20260506145140 58 79 10.0 19.0 0.00 0.00 0.00 61 1009.4
20260506144940 58 0 8.0 21.0 0.00 0.00 0.00 61 1009.5
20260506144740 58 71 8.0 21.0 0.00 0.00 0.00 61 1009.5
20260506144541 58 82 8.0 21.0 0.00 0.00 0.00 61 1009.5
20260506144340 58 51 13.0 21.0 0.00 0.00 0.00 62 1009.5
20260506144139 58 92 14.0 21.0 0.00 0.00 0.00 62 1009.4
20260506143939 57 79 9.0 17.0 0.00 0.00 0.00 62 1009.5
20260506143740 57 71 9.0 17.0 0.00 0.00 0.00 62 1009.3
20260506143541 57 0 9.0 17.0 0.00 0.00 0.00 62 1009.3
20260506143334 56 71 11.0 19.0 0.00 0.00 0.00 62 1009.3
20260506143131 56 80 11.0 19.0 0.00 0.00 0.00 63 1009.2
20260506142931 56 32 6.0 19.0 0.00 0.00 0.00 63 1009.2
20260506142731 56 0 7.0 19.0 0.00 0.00 0.00 63 1009.3
20260506142531 56 97 10.0 19.0 0.00 0.00 0.00 63 1009.3
20260506142331 56 72 5.0 16.0 0.00 0.00 0.00 63 1009.3
20260506142131 56 78 7.0 16.0 0.00 0.00 0.00 63 1009.4
20260506141931 56 0 5.0 15.0 0.00 0.00 0.00 63 1009.4
20260506141731 56 111 10.0 16.0 0.00 0.00 0.00 63 1009.4
20260506141531 56 0 7.0 16.0 0.00 0.00 0.00 63 1009.4
20260506141332 56 63 12.0 16.0 0.00 0.00 0.00 63 1009.3
20260506141131 56 0 8.0 16.0 0.00 0.00 0.00 63 1009.4
20260506140934 56 0 11.0 16.0 0.00 0.00 0.00 63 1009.3
20260506140735 56 103 6.0 15.0 0.00 0.00 0.00 63 1009.3
20260506140534 56 0 5.0 15.0 0.00 0.00 0.00 63 1009.4
20260506140329 56 66 7.0 15.0 0.00 0.00 0.00 63 1009.4
20260506140106 56 61 10.0 15.0 0.00 0.00 0.00 63 1009.3
20260506135905 56 61 9.0 15.0 0.00 0.00 0.00 63 1009.4
20260506135705 57 66 9.0 19.0 0.00 0.00 0.00 63 1009.4
20260506135507 57 102 6.0 19.0 0.00 0.00 0.00 63 1009.4
20260506135306 57 0 11.0 19.0 0.00 0.00 0.00 63 1009.3
20260506135105 57 0 10.0 19.0 0.00 0.00 0.00 62 1009.4
20260506134906 57 76 10.0 19.0 0.00 0.00 0.00 62 1009.4
20260506134705 57 75 7.0 17.0 0.00 0.00 0.00 62 1009.3
20260506134506 58 104 10.0 17.0 0.00 0.00 0.00 62 1009.3
20260506134305 58 76 7.0 17.0 0.00 0.00 0.00 62 1009.3
20260506134105 58 69 6.0 17.0 0.00 0.00 0.00 62 1009.3
20260506133906 58 0 6.0 19.0 0.00 0.00 0.00 62 1009.3
20260506133705 58 0 9.0 19.0 0.00 0.00 0.00 62 1009.2
20260506133505 58 0 8.0 21.0 0.00 0.00 0.00 62 1009.2
20260506133306 58 63 9.0 23.0 0.00 0.00 0.00 62 1009.2
20260506133105 58 0 15.0 23.0 0.00 0.00 0.00 62 1009.2
20260506132906 58 75 13.0 23.0 0.00 0.00 0.00 62 1009.2
20260506132706 58 0 16.0 23.0 0.00 0.00 0.00 62 1009.1
20260506132505 58 58 13.0 23.0 0.00 0.00 0.00 62 1009.1
20260506132307 58 0 6.0 18.0 0.00 0.00 0.00 62 1009.1
20260506132105 58 59 11.0 18.0 0.00 0.00 0.00 62 1009.1
20260506131835 58 66 9.0 19.0 0.00 0.00 0.00 62 1009.1
20260506131635 58 0 10.0 19.0 0.00 0.00 0.00 62 1009.1
20260506131434 58 0 11.0 19.0 0.00 0.00 0.00 62 1009.1
20260506131235 58 72 8.0 19.0 0.00 0.00 0.00 62 1009.2
20260506131035 58 68 10.0 19.0 0.00 0.00 0.00 62 1009.2
20260506130835 58 54 10.0 19.0 0.00 0.00 0.00 62 1009.2
20260506130634 58 78 10.0 19.0 0.00 0.00 0.00 62 1009.1
20260506130434 58 0 10.0 19.0 0.00 0.00 0.00 62 1009.2
20260506130234 58 0 12.0 19.0 0.00 0.00 0.00 62 1009.3
20260506130034 58 71 13.0 19.0 0.00 0.00 0.00 62 1009.1
20260506125834 58 66 10.0 19.0 0.00 0.00 0.00 62 1009.1
20260506125635 58 93 12.0 19.0 0.00 0.00 0.00 62 1009.1
20260506125435 58 92 11.0 19.0 0.00 0.00 0.00 62 1009.0
20260506125234 58 65 12.0 19.0 0.00 0.00 0.00 62 1009.1
20260506125034 58 0 13.0 19.0 0.00 0.00 0.00 62 1009.0
20260506124834 58 0 13.0 19.0 0.00 0.00 0.00 62 1009.1
20260506124635 58 0 12.0 20.0 0.00 0.00 0.00 62 1009.0
20260506124435 58 0 11.0 20.0 0.00 0.00 0.00 62 1009.1
20260506124234 57 59 12.0 20.0 0.00 0.00 0.00 62 1009.1
20260506124035 57 100 12.0 20.0 0.00 0.00 0.00 62 1009.0
20260506123833 57 93 18.0 20.0 0.00 0.00 0.00 62 1009.0
20260506123635 57 72 16.0 20.0 0.00 0.00 0.00 62 1008.9
20260506123433 57 54 17.0 20.0 0.00 0.00 0.00 62 1008.9
20260506123234 57 75 15.0 18.0 0.00 0.00 0.00 62 1008.9
20260506123034 57 79 14.0 18.0 0.00 0.00 0.00 62 1008.9
20260506122834 57 107 13.0 17.0 0.00 0.00 0.00 62 1008.9
20260506122634 57 79 13.0 17.0 0.00 0.00 0.00 62 1008.9
20260506122433 58 96 9.0 17.0 0.00 0.00 0.00 62 1008.8
20260506122234 58 0 8.0 17.0 0.00 0.00 0.00 63 1008.8
20260506122033 58 0 10.0 17.0 0.00 0.00 0.00 62 1009.0
20260506121833 58 0 10.0 17.0 0.00 0.00 0.00 62 1008.8
20260506121633 58 59 9.0 17.0 0.00 0.00 0.00 62 1008.9
20260506121433 58 75 6.0 20.0 0.00 0.00 0.00 62 1009.0
20260506121233 58 0 7.0 20.0 0.00 0.00 0.00 62 1008.9
20260506121033 58 66 10.0 20.0 0.00 0.00 0.00 62 1008.9
20260506120833 58 0 12.0 20.0 0.00 0.00 0.00 62 1009.0
20260506120633 58 69 14.0 20.0 0.00 0.00 0.00 62 1008.9
20260506120433 58 0 13.0 17.0 0.00 0.00 0.00 62 1008.9
20260506120233 58 0 10.0 17.0 0.00 0.00 0.00 62 1008.9
20260506120034 58 0 10.0 17.0 0.00 0.00 0.00 62 1008.9
20260506115833 58 51 9.0 17.0 0.00 0.00 0.00 62 1008.8
20260506115633 58 55 10.0 17.0 0.00 0.00 0.00 62 1008.8
20260506115434 58 59 13.0 17.0 0.00 0.00 0.00 62 1008.8
20260506115232 58 111 13.0 17.0 0.00 0.00 0.00 62 1008.8
20260506115033 57 0 8.0 17.0 0.00 0.00 0.00 62 1008.8
20260506114832 57 71 10.0 17.0 0.00 0.00 0.00 62 1008.8
20260506114632 57 0 12.0 18.0 0.00 0.00 0.00 62 1009.0
20260506114433 57 62 12.0 19.0 0.00 0.00 0.00 62 1008.8
20260506114232 57 65 12.0 20.0 0.00 0.00 0.00 62 1008.8
20260506114033 58 51 13.0 20.0 0.00 0.00 0.00 63 1008.7
20260506113832 58 0 16.0 20.0 0.00 0.00 0.00 62 1008.8
20260506113632 58 0 15.0 20.0 0.00 0.00 0.00 62 1008.7
20260506113432 58 86 16.0 20.0 0.00 0.00 0.00 62 1008.7
20260506113232 58 0 15.0 19.0 0.00 0.00 0.00 62 1008.8
20260506113032 59 49 16.0 19.0 0.00 0.00 0.00 62 1008.8
20260506112833 59 0 11.0 18.0 0.00 0.00 0.00 62 1008.8
20260506112633 59 0 11.0 18.0 0.00 0.00 0.00 62 1008.7
20260506112432 59 71 11.0 18.0 0.00 0.00 0.00 62 1008.8
20260506112232 59 76 6.0 18.0 0.00 0.00 0.00 62 1008.7
20260506112033 59 56 13.0 19.0 0.00 0.00 0.00 62 1008.8
20260506111832 59 31 9.0 19.0 0.00 0.00 0.00 62 1008.7
20260506111632 59 69 12.0 19.0 0.00 0.00 0.00 62 1008.7
20260506111432 59 52 12.0 19.0 0.00 0.00 0.00 62 1008.7
20260506111232 59 0 12.0 19.0 0.00 0.00 0.00 62 1008.7
20260506111032 59 0 12.0 19.0 0.00 0.00 0.00 62 1008.6
20260506110832 59 68 11.0 15.0 0.00 0.00 0.00 62 1008.7
20260506110632 59 72 8.0 16.0 0.00 0.00 0.00 62 1008.7
20260506110430 59 0 7.0 16.0 0.00 0.00 0.00 62 1008.6
20260506110233 59 66 4.0 16.0 0.00 0.00 0.00 62 1008.7
20260506110033 59 71 5.0 16.0 0.00 0.00 0.00 62 1008.7
20260506105831 59 69 10.0 16.0 0.00 0.00 0.00 62 1008.7
20260506105632 58 61 10.0 16.0 0.00 0.00 0.00 62 1008.7
20260506105435 58 69 11.0 16.0 0.00 0.00 0.00 61 1008.6
20260506105234 58 62 7.0 15.0 0.00 0.00 0.00 62 1008.7
20260506105034 58 62 9.0 15.0 0.00 0.00 0.00 61 1008.7
20260506104833 58 71 9.0 15.0 0.00 0.00 0.00 61 1008.7
20260506104606 58 61 9.0 15.0 0.00 0.00 0.00 61 1008.7
20260506104404 58 0 9.0 15.0 0.00 0.00 0.00 60 1008.7
20260506104204 58 78 10.0 15.0 0.00 0.00 0.00 60 1008.7
20260506104006 58 73 6.0 13.0 0.00 0.00 0.00 59 1008.8
20260506103802 58 56 8.0 13.0 0.00 0.00 0.00 60 1008.8
20260506103553 58 73 5.0 14.0 0.00 0.00 0.00 60 1008.7
20260506103141 57 0 5.0 14.0 0.00 0.00 0.00 61 1008.6
20260506102933 57 54 3.0 14.0 0.00 0.00 0.00 61 1008.7
20260506102732 57 79 5.0 14.0 0.00 0.00 0.00 61 1008.7
20260506102531 57 54 8.0 16.0 0.00 0.00 0.00 61 1008.7
20260506102331 57 73 7.0 16.0 0.00 0.00 0.00 61 1008.7
20260506102131 57 44 8.0 16.0 0.00 0.00 0.00 61 1008.7
20260506101932 57 56 5.0 16.0 0.00 0.00 0.00 61 1008.6
20260506101730 57 0 9.0 16.0 0.00 0.00 0.00 61 1008.7
20260506101531 57 78 6.0 14.0 0.00 0.00 0.00 61 1008.6
20260506101331 57 79 5.0 14.0 0.00 0.00 0.00 61 1008.5
20260506101131 57 0 6.0 14.0 0.00 0.00 0.00 60 1008.6
20260506100931 56 71 4.0 15.0 0.00 0.00 0.00 61 1008.6
20260506100731 56 0 7.0 15.0 0.00 0.00 0.00 61 1008.6
20260506100531 56 54 7.0 15.0 0.00 0.00 0.00 60 1008.5
20260506100331 56 68 8.0 15.0 0.00 0.00 0.00 60 1008.5
20260506100130 56 109 8.0 15.0 0.00 0.00 0.00 60 1008.5
20260506095931 56 54 8.0 13.0 0.00 0.00 0.00 60 1008.5
20260506095730 56 55 8.0 13.0 0.00 0.00 0.00 60 1008.5
20260506095532 56 55 6.0 13.0 0.00 0.00 0.00 59 1008.5
20260506095330 56 89 5.0 13.0 0.00 0.00 0.00 58 1008.5
20260506095130 56 68 6.0 13.0 0.00 0.00 0.00 57 1008.5
20260506094930 56 80 2.0 12.0 0.00 0.00 0.00 58 1008.5
20260506094731 56 61 5.0 12.0 0.00 0.00 0.00 57 1008.4
20260506094532 56 72 3.0 16.0 0.00 0.00 0.00 57 1008.5
20260506094330 56 0 8.0 16.0 0.00 0.00 0.00 58 1008.4
20260506094130 56 73 8.0 16.0 0.00 0.00 0.00 57 1008.4
20260506093931 56 79 7.0 16.0 0.00 0.00 0.00 57 1008.4
20260506093731 57 0 10.0 16.0 0.00 0.00 0.00 57 1008.4
20260506093531 57 0 10.0 15.0 0.00 0.00 0.00 56 1008.4
20260506093330 57 106 2.0 12.0 0.00 0.00 0.00 55 1008.4
20260506093130 57 58 1.0 12.0 0.00 0.00 0.00 55 1008.4
20260506092930 57 59 2.0 12.0 0.00 0.00 0.00 55 1008.4
20260506092730 57 61 3.0 13.0 0.00 0.00 0.00 53 1008.4
20260506092531 57 0 9.0 13.0 0.00 0.00 0.00 49 1008.4
20260506092330 57 58 5.0 13.0 0.00 0.00 0.00 50 1008.4
20260506092130 57 0 5.0 13.0 0.00 0.00 0.00 50 1008.5
20260506091907 57 0 6.0 13.0 0.00 0.00 0.00 48 1008.5
20260506091705 57 48 2.0 13.0 0.00 0.00 0.00 48 1008.4
20260506091506 57 104 7.0 13.0 0.00 0.00 0.00 44 1008.4
20260506091305 57 71 6.0 13.0 0.00 0.00 0.00 41 1008.4
20260506091106 56 0 3.0 15.0 0.00 0.00 0.00 38 1008.4
20260506090832 56 0 3.0 15.0 0.00 0.00 0.00 36 1008.4
20260506090631 56 0 6.0 15.0 0.00 0.00 0.00 36 1008.4
20260506090431 56 0 4.0 15.0 0.00 0.00 0.00 34 1008.4
20260506090231 56 0 5.0 16.0 0.00 0.00 0.00 36 1008.5
20260506090032 56 75 2.0 16.0 0.00 0.00 0.00 36 1008.4
20260506085829 56 0 4.0 16.0 0.00 0.00 0.00 36 1008.4
20260506085630 56 76 6.0 16.0 0.00 0.00 0.00 34 1008.3
20260506085430 56 71 9.0 16.0 0.00 0.00 0.00 34 1008.4
20260506085228 56 83 6.0 12.0 0.00 0.00 0.00 36 1008.4
20260506085029 56 65 4.0 11.0 0.00 0.00 0.00 35 1008.4
20260506084828 56 71 5.0 11.0 0.00 0.00 0.00 30 1008.4
20260506084630 56 62 3.0 13.0 0.00 0.00 0.00 29 1008.4
20260506084429 55 0 3.0 14.0 0.00 0.00 0.00 32 1008.4
20260506084228 55 66 5.0 14.0 0.00 0.00 0.00 30 1008.4
20260506084029 55 51 4.0 15.0 0.00 0.00 0.00 30 1008.4
20260506083829 55 127 7.0 15.0 0.00 0.00 0.00 29 1008.4
20260506083629 55 0 6.0 15.0 0.00 0.00 0.00 29 1008.4
20260506083428 55 0 7.0 15.0 0.00 0.00 0.00 26 1008.3
20260506083229 55 65 7.0 15.0 0.00 0.00 0.00 26 1008.4
20260506083029 55 0 2.0 14.0 0.00 0.00 0.00 24 1008.4
20260506082828 55 62 5.0 16.0 0.00 0.00 0.00 24 1008.4
20260506082628 55 62 7.0 16.0 0.00 0.00 0.00 25 1008.3
20260506082429 55 93 9.0 16.0 0.00 0.00 0.00 24 1008.3
20260506082228 55 0 9.0 16.0 0.00 0.00 0.00 23 1008.3
20260506082028 55 75 12.0 16.0 0.00 0.00 0.00 20 1008.3
20260506081828 55 61 2.0 14.0 0.00 0.00 0.00 17 1008.2
20260506081628 55 59 3.0 14.0 0.00 0.00 0.00 15 1008.3
20260506081429 55 45 6.0 14.0 0.00 0.00 0.00 11 1008.3
20260506081228 55 76 6.0 14.0 0.00 0.00 0.00 8 1008.3
20260506081028 54 54 7.0 14.0 0.00 0.00 0.00 6 1008.4
20260506080820 54 0 2.0 14.0 0.00 0.00 0.00 3 1008.3
20260506080615 54 65 4.0 14.0 0.00 0.00 0.00 6 1008.3
20260506080408 54 73 0.0 14.0 0.00 0.00 0.00 5 1008.3
20260506080206 54 65 6.0 14.0 0.00 0.00 0.00 5 1008.3
20260506073405 53 0 3.0 13.0 0.00 0.00 0.00 1 1008.2
20260506073205 53 0 0.0 13.0 0.00 0.00 0.00 1 1008.2
20260506073007 53 48 5.0 13.0 0.00 0.00 0.00 1 1008.2
20260506072805 53 78 8.0 13.0 0.00 0.00 0.00 1 1008.3
20260506072605 53 58 4.0 13.0 0.00 0.00 0.00 1 1008.2
20260506072406 53 0 2.0 12.0 0.00 0.00 0.00 1 1008.2
20260506072205 52 59 2.0 12.0 0.00 0.00 0.00 1 1008.2
20260506072005 52 61 2.0 12.0 0.00 0.00 0.00 1 1008.2
20260506071803 52 0 4.0 12.0 0.00 0.00 0.00 1 1008.2
20260506071604 52 0 3.0 12.0 0.00 0.00 0.00 1 1008.2
20260506071403 52 111 2.0 12.0 0.00 0.00 0.00 1 1008.2
20260506071205 52 75 2.0 12.0 0.00 0.00 0.00 1 1008.2
20260506071004 52 71 4.0 13.0 0.00 0.00 0.00 1 1008.2
20260506070804 52 0 5.0 13.0 0.00 0.00 0.00 1 1008.1
20260506070605 52 55 7.0 13.0 0.00 0.00 0.00 1 1008.3
20260506070404 52 0 5.0 13.0 0.00 0.00 0.00 1 1008.3
20260506070205 52 51 7.0 13.0 0.00 0.00 0.00 1 1008.2
20260506062403 52 0 1.0 9.0 0.00 0.00 0.00 1 1008.0
20260506062203 52 0 4.0 9.0 0.00 0.00 0.00 1 1007.9
20260506062004 52 56 4.0 9.0 0.00 0.00 0.00 1 1008.0
20260506061803 52 61 2.0 9.0 0.00 0.00 0.00 1 1008.0
20260506061604 52 0 2.0 9.0 0.00 0.00 0.00 1 1007.9
20260506061404 52 127 2.0 9.0 0.00 0.00 0.00 1 1007.9
20260506061203 52 76 3.0 9.0 0.00 0.00 0.00 1 1007.9
20260506061006 52 78 1.0 7.0 0.00 0.00 0.00 1 1007.9
20260506060805 52 76 2.0 7.0 0.00 0.00 0.00 1 1007.9
20260506060604 52 0 2.0 7.0 0.00 0.00 0.00 1 1007.9
20260506060402 52 44 3.0 7.0 0.00 0.00 0.00 1 1007.9
20260506060203 52 55 1.0 7.0 0.00 0.00 0.00 1 1007.9
20260506051341 50 0 0.0 3.0 0.00 0.00 0.00 1 1007.8
20260506051132 50 0 0.0 3.0 0.00 0.00 0.00 1 1007.9
20260506050932 50 68 0.0 3.0 0.00 0.00 0.00 1 1007.8
20260506050730 50 110 0.0 3.0 0.00 0.00 0.00 1 1007.8
20260506050532 50 0 1.0 3.0 0.00 0.00 0.00 1 1007.9
20260506050332 50 71 1.0 3.0 0.00 0.00 0.00 1 1007.9
20260506050131 50 0 0.0 4.0 0.00 0.00 0.00 1 1007.8
20260506045125 50 0 0.0 3.0 0.00 0.00 0.00 1 1008.0
20260506044925 50 0 1.0 3.0 0.00 0.00 0.00 1 1008.1
20260506044725 50 35 0.0 4.0 0.00 0.00 0.00 1 1008.0
20260506044526 50 62 0.0 4.0 0.00 0.00 0.00 1 1008.0
20260506044326 50 68 1.0 4.0 0.00 0.00 0.00 1 1007.9
20260506044125 50 83 0.0 5.0 0.00 0.00 0.00 1 1007.9
20260506043925 50 63 2.0 5.0 0.00 0.00 0.00 1 1007.8
20260506043724 50 78 1.0 6.0 0.00 0.00 0.00 1 1007.8
20260506043527 50 0 0.0 6.0 0.00 0.00 0.00 1 1007.8
20260506043324 50 45 2.0 6.0 0.00 0.00 0.00 1 1007.8
20260506043124 50 42 1.0 6.0 0.00 0.00 0.00 1 1007.8
20260506042924 50 71 2.0 6.0 0.00 0.00 0.00 1 1007.7
20260506042725 50 73 2.0 5.0 0.00 0.00 0.00 1 1007.7
20260506042527 50 58 2.0 5.0 0.00 0.00 0.00 1 1007.7
20260506042326 50 0 1.0 5.0 0.00 0.00 0.00 1 1007.8
20260506042126 50 65 0.0 5.0 0.00 0.00 0.00 1 1007.7
20260506041924 50 63 0.0 5.0 0.00 0.00 0.00 1 1007.7
20260506041726 50 68 1.0 5.0 0.00 0.00 0.00 1 1007.7
20260506041525 50 76 0.0 4.0 0.00 0.00 0.00 1 1007.7
20260506041324 50 61 0.0 4.0 0.00 0.00 0.00 1 1007.7
20260506041125 50 0 2.0 4.0 0.00 0.00 0.00 1 1007.8
20260506040924 50 66 0.0 2.0 0.00 0.00 0.00 1 1007.8
20260506040724 50 0 0.0 2.0 0.00 0.00 0.00 1 1007.9
20260506040526 50 0 0.0 2.0 0.00 0.00 0.00 1 1007.8
20260506040324 50 52 1.0 3.0 0.00 0.00 0.00 1 1007.9
20260506040124 50 65 0.0 3.0 0.00 0.00 0.00 1 1007.9
20260506035923 50 66 0.0 3.0 0.00 0.00 0.00 1 1007.8
20260506035724 50 75 0.0 5.0 0.00 0.00 0.00 1 1007.8
20260506035525 50 76 0.0 7.0 0.00 0.00 0.00 1 1007.8
20260506035325 50 0 0.0 7.0 0.00 0.00 0.00 1 1007.8
20260506035124 50 0 1.0 7.0 0.00 0.00 0.00 1 1007.8
20260506034923 50 69 1.0 7.0 0.00 0.00 0.00 1 1007.8
20260506034723 50 66 2.0 7.0 0.00 0.00 0.00 1 1007.8
20260506034525 50 0 1.0 4.0 0.00 0.00 0.00 1 1007.8
20260506034324 50 63 0.0 4.0 0.00 0.00 0.00 1 1007.8
20260506034124 50 76 1.0 4.0 0.00 0.00 0.00 1 1007.8
20260506033924 50 55 1.0 4.0 0.00 0.00 0.00 1 1007.8
20260506033724 50 72 2.0 4.0 0.00 0.00 0.00 1 1007.9
20260506033526 50 0 1.0 2.0 0.00 0.00 0.00 1 1007.9
20260506033324 50 72 0.0 1.0 0.00 0.00 0.00 1 1007.9
20260506033123 50 0 0.0 1.0 0.00 0.00 0.00 1 1007.9
20260506032924 50 66 0.0 1.0 0.00 0.00 0.00 1 1007.9
20260506032724 50 82 0.0 2.0 0.00 0.00 0.00 1 1008.0
20260506032524 50 61 0.0 3.0 0.00 0.00 0.00 1 1008.0
20260506032323 50 99 0.0 4.0 0.00 0.00 0.00 1 1008.0
20260506032123 50 72 0.0 4.0 0.00 0.00 0.00 1 1008.0
20260506031923 50 65 0.0 4.0 0.00 0.00 0.00 1 1008.0
20260506031724 50 72 0.0 4.0 0.00 0.00 0.00 1 1008.0
20260506031524 50 0 0.0 4.0 0.00 0.00 0.00 1 1008.1
20260506031322 50 0 0.0 3.0 0.00 0.00 0.00 1 1008.1
20260506031122 50 0 1.0 3.0 0.00 0.00 0.00 1 1008.1
20260506030923 50 0 1.0 3.0 0.00 0.00 0.00 1 1008.1
20260506030724 50 0 0.0 3.0 0.00 0.00 0.00 1 1008.1
20260506030524 50 65 0.0 3.0 0.00 0.00 0.00 1 1008.2
20260506030323 50 66 0.0 4.0 0.00 0.00 0.00 1 1008.2
20260506030122 50 0 0.0 4.0 0.00 0.00 0.00 1 1008.2
20260506025924 50 63 0.0 4.0 0.00 0.00 0.00 1 1008.3
20260506025724 50 0 0.0 4.0 0.00 0.00 0.00 1 1008.2
20260506025525 50 0 0.0 4.0 0.00 0.00 0.00 1 1008.2
20260506025325 50 78 0.0 2.0 0.00 0.00 0.00 1 1008.3
20260506025125 50 61 0.0 3.0 0.00 0.00 0.00 1 1008.3
20260506024924 50 0 0.0 3.0 0.00 0.00 0.00 1 1008.4
20260506024724 50 0 0.0 3.0 0.00 0.00 0.00 1 1008.4
20260506024525 50 48 0.0 4.0 0.00 0.00 0.00 1 1008.3
20260506024323 50 0 1.0 4.0 0.00 0.00 0.00 1 1008.4
20260506024124 50 55 0.0 4.0 0.00 0.00 0.00 1 1008.4
20260506023924 50 0 0.0 4.0 0.00 0.00 0.00 1 1008.5
20260506023724 50 0 0.0 4.0 0.00 0.00 0.00 1 1008.5
20260506023525 50 69 0.0 2.0 0.00 0.00 0.00 1 1008.5
20260506023324 50 45 0.0 2.0 0.00 0.00 0.00 1 1008.5
20260506023123 50 0 0.0 2.0 0.00 0.00 0.00 1 1008.5
20260506022937 50 72 0.0 1.0 0.00 0.00 0.00 1 1008.5
20260506022723 50 73 0.0 1.0 0.00 0.00 0.00 1 1008.5
20260506022525 50 0 0.0 1.0 0.00 0.00 0.00 1 1008.5
20260506022323 50 82 0.0 1.0 0.00 0.00 0.00 1 1008.5
20260506022124 50 59 0.0 1.0 0.00 0.00 0.00 1 1008.4
20260506021923 50 59 0.0 1.0 0.00 0.00 0.00 1 1008.4
20260506021723 50 63 0.0 1.0 0.00 0.00 0.00 1 1008.4
20260506021526 50 82 0.0 4.0 0.00 0.00 0.00 1 1008.4
20260506021323 50 66 0.0 4.0 0.00 0.00 0.00 1 1008.4
20260506021124 50 76 0.0 4.0 0.00 0.00 0.00 1 1008.4
20260506020924 50 61 0.0 5.0 0.00 0.00 0.00 1 1008.4
20260506020723 50 71 0.0 5.0 0.00 0.00 0.00 1 1008.4
20260506020526 50 51 0.0 5.0 0.00 0.00 0.00 1 1008.4
20260506020324 50 54 0.0 5.0 0.00 0.00 0.00 1 1008.5
20260506020124 50 65 0.0 5.0 0.00 0.00 0.00 1 1008.4
20260506015922 50 55 0.0 2.0 0.00 0.00 0.00 1 1008.6
20260506015723 50 68 0.0 2.0 0.00 0.00 0.00 1 1008.6
20260506015529 50 102 0.0 2.0 0.00 0.00 0.00 1 1008.6
20260506015322 50 73 0.0 2.0 0.00 0.00 0.00 1 1008.6
20260506015117 50 66 0.0 2.0 0.00 0.00 0.00 1 1008.6
20260506014910 50 52 0.0 4.0 0.00 0.00 0.00 1 1008.6
20260506014706 50 62 0.0 4.0 0.00 0.00 0.00 1 1008.6
20260506014507 50 54 0.0 4.0 0.00 0.00 0.00 1 1008.6
20260506014306 50 0 1.0 4.0 0.00 0.00 0.00 1 1008.7
20260506014105 50 51 2.0 5.0 0.00 0.00 0.00 1 1008.7
20260506013906 50 44 0.0 5.0 0.00 0.00 0.00 1 1008.7
20260506013706 50 55 1.0 7.0 0.00 0.00 0.00 1 1008.7
20260506013507 50 0 1.0 7.0 0.00 0.00 0.00 1 1008.7
20260506013305 50 66 1.0 7.0 0.00 0.00 0.00 1 1008.7
20260506013106 50 59 2.0 7.0 0.00 0.00 0.00 1 1008.7
20260506012905 50 68 2.0 7.0 0.00 0.00 0.00 1 1008.6
20260506012706 50 0 1.0 4.0 0.00 0.00 0.00 1 1008.7
20260506012507 50 59 0.0 3.0 0.00 0.00 0.00 1 1008.7
20260506012308 50 62 0.0 4.0 0.00 0.00 0.00 1 1008.8
20260506012105 50 69 0.0 4.0 0.00 0.00 0.00 1 1008.7
20260506011905 50 0 0.0 4.0 0.00 0.00 0.00 1 1008.7
20260506011705 50 61 0.0 4.0 0.00 0.00 0.00 1 1008.8
20260506011505 50 75 1.0 4.0 0.00 0.00 0.00 1 1008.8
20260506011305 50 54 1.0 4.0 0.00 0.00 0.00 1 1008.7
20260506011105 50 0 0.0 6.0 0.00 0.00 0.00 1 1008.7
20260506010903 50 61 1.0 10.0 0.00 0.00 0.00 1 1008.7
20260506010704 50 0 0.0 10.0 0.00 0.00 0.00 1 1008.7
20260506010503 50 0 0.0 10.0 0.00 0.00 0.00 1 1008.7
20260506010304 50 0 2.0 10.0 0.00 0.00 0.00 1 1008.8
20260506010104 50 79 2.0 10.0 0.00 0.00 0.00 1 1008.8
20260506005904 50 0 1.0 4.0 0.00 0.00 0.00 1 1008.9
20260506005702 50 56 0.0 5.0 0.00 0.00 0.00 1 1008.8
20260506005504 50 0 1.0 5.0 0.00 0.00 0.00 1 1008.8
20260506005305 50 0 0.0 5.0 0.00 0.00 0.00 1 1008.8
20260506005103 50 0 0.0 5.0 0.00 0.00 0.00 1 1008.9
20260506004906 50 65 1.0 5.0 0.00 0.00 0.00 1 1008.9
20260506004705 50 76 0.0 4.0 0.00 0.00 0.00 1 1008.9
20260506004505 50 76 1.0 4.0 0.00 0.00 0.00 1 1008.9
20260506004302 50 0 1.0 3.0 0.00 0.00 0.00 1 1008.9
20260506004105 50 61 0.0 1.0 0.00 0.00 0.00 1 1008.9
20260506003905 50 54 0.0 1.0 0.00 0.00 0.00 1 1009.0
20260506003705 50 59 0.0 1.0 0.00 0.00 0.00 1 1009.0
20260506003502 50 0 0.0 1.0 0.00 0.00 0.00 1 1009.0
20260506003305 50 0 0.0 1.0 0.00 0.00 0.00 1 1009.0
20260506003102 50 66 0.0 0.0 0.00 0.00 0.00 1 1009.1
20260506002834 50 0 0.0 1.0 0.00 0.00 0.00 1 1009.0
20260506002634 50 0 0.0 1.0 0.00 0.00 0.00 1 1009.0
20260506002431 50 0 0.0 1.0 0.00 0.00 0.00 1 1009.0
20260506002231 50 0 0.0 1.0 0.00 0.00 0.00 1 1009.0
20260506002031 50 0 0.0 1.0 0.00 0.00 0.00 1 1009.0
20260506001831 50 71 0.0 1.0 0.00 0.00 0.00 1 1009.0
20260506001631 50 76 0.0 1.0 0.00 0.00 0.00 1 1009.1
20260506001431 50 71 0.0 1.0 0.00 0.00 0.00 1 1009.0
20260506001231 50 72 0.0 1.0 0.00 0.00 0.00 1 1009.1
20260506001031 50 68 0.0 1.0 0.00 0.00 0.00 1 1009.1
20260506000831 50 71 0.0 0.0 0.00 0.00 0.00 1 1009.1
20260506000631 50 73 0.0 0.0 0.00 0.00 0.00 1 1009.1
20260506000431 50 0 0.0 0.0 0.00 0.00 0.00 1 1009.1
20260506000232 50 69 0.0 0.0 0.00 0.00 0.00 1 1009.2
20260506000032 50 69 0.0 0.0 0.00 0.00 0.00 1 1009.2
20260505235831 50 79 0.0 0.0 0.00 0.00 0.00 1 1009.3
20260505235632 50 72 0.0 1.0 0.00 0.00 0.00 1 1009.3
20260505235431 50 66 0.0 1.0 0.00 0.00 0.00 1 1009.3
20260505235232 50 63 0.0 1.0 0.00 0.00 0.00 1 1009.4
20260505235031 50 55 0.0 1.0 0.00 0.00 0.00 1 1009.4
20260505234832 50 47 0.0 1.0 0.00 0.00 0.00 1 1009.4
20260505234631 50 75 0.0 4.0 0.00 0.00 0.00 1 1009.4
20260505234432 50 69 0.0 4.0 0.00 0.00 0.00 1 1009.3
20260505234231 50 61 0.0 4.0 0.00 0.00 0.00 1 1009.4
20260505234031 50 0 1.0 4.0 0.00 0.00 0.00 1 1009.4
20260505233833 50 75 1.0 4.0 0.00 0.00 0.00 1 1009.5
20260505233635 50 54 0.0 1.0 0.00 0.00 0.00 1 1009.5
20260505233425 50 54 0.0 1.0 0.00 0.00 0.00 1 1009.4
20260505233219 50 0 0.0 0.0 0.00 0.00 0.00 1 1009.5
20260505233019 50 73 0.0 1.0 0.00 0.00 0.00 1 1009.4
20260505232819 50 69 0.0 1.0 0.00 0.00 0.00 1 1009.5
20260505232620 50 66 0.0 1.0 0.00 0.00 0.00 1 1009.5
20260505232419 50 49 0.0 1.0 0.00 0.00 0.00 1 1009.5
20260505232219 50 58 0.0 1.0 0.00 0.00 0.00 1 1009.5
20260505232019 50 56 0.0 0.0 0.00 0.00 0.00 1 1009.5
20260505231819 50 92 0.0 0.0 0.00 0.00 0.00 1 1009.5
20260505231619 50 72 0.0 0.0 0.00 0.00 0.00 1 1009.5
20260505231418 50 0 0.0 0.0 0.00 0.00 0.00 1 1009.5
20260505231219 50 62 0.0 0.0 0.00 0.00 0.00 1 1009.5
20260505231019 50 75 0.0 0.0 0.00 0.00 0.00 1 1009.6
20260505230819 50 0 0.0 1.0 0.00 0.00 0.00 1 1009.6
20260505230620 50 0 0.0 1.0 0.00 0.00 0.00 1 1009.6
20260505230419 50 0 0.0 1.0 0.00 0.00 0.00 1 1009.6
20260505230217 50 55 0.0 1.0 0.00 0.00 0.00 1 1009.6
20260505230018 50 47 0.0 1.0 0.00 0.00 0.00 1 1009.6
20260505225818 50 55 0.0 1.0 0.00 0.00 0.00 1 1009.6
20260505225617 50 0 0.0 1.0 0.00 0.00 0.00 1 1009.6
20260505225418 50 69 0.0 1.0 0.00 0.00 0.00 1 1009.6
20260505225217 50 55 0.0 1.0 0.00 0.00 0.00 1 1009.6
20260505225017 50 75 0.0 1.0 0.00 0.00 0.00 1 1009.6
20260505224817 50 63 0.0 0.0 0.00 0.00 0.00 1 1009.7
20260505224610 50 61 0.0 0.0 0.00 0.00 0.00 1 1009.7
20260505224409 50 104 0.0 0.0 0.00 0.00 0.00 1 1009.7
20260505224205 50 85 0.0 0.0 0.00 0.00 0.00 1 1009.7
20260505224005 50 0 0.0 0.0 0.00 0.00 0.00 1 1009.6
20260505223804 50 65 0.0 0.0 0.00 0.00 0.00 1 1009.7
20260505223604 50 65 0.0 0.0 0.00 0.00 0.00 1 1009.7
20260505223404 50 0 0.0 0.0 0.00 0.00 0.00 1 1009.7
20260505223204 50 72 0.0 0.0 0.00 0.00 0.00 1 1009.7
20260505223005 50 0 0.0 0.0 0.00 0.00 0.00 1 1009.8
20260505222804 49 69 0.0 0.0 0.00 0.00 0.00 1 1009.7
20260505222604 49 79 0.0 0.0 0.00 0.00 0.00 1 1009.7
20260505222404 49 0 0.0 0.0 0.00 0.00 0.00 1 1009.7
20260505222203 49 73 0.0 0.0 0.00 0.00 0.00 1 1009.8
20260505222003 49 65 0.0 0.0 0.00 0.00 0.00 1 1009.8
20260505221803 49 0 0.0 0.0 0.00 0.00 0.00 1 1009.8
20260505221602 50 73 0.0 0.0 0.00 0.00 0.00 1 1009.8
20260505221403 50 102 0.0 0.0 0.00 0.00 0.00 1 1009.8
20260505221203 50 75 0.0 0.0 0.00 0.00 0.00 1 1009.9
20260505221002 50 79 0.0 0.0 0.00 0.00 0.00 1 1009.8
20260505220802 50 109 0.0 0.0 0.00 0.00 0.00 1 1009.9
20260505220602 50 0 0.0 0.0 0.00 0.00 0.00 1 1009.9
20260505220403 50 75 0.0 0.0 0.00 0.00 0.00 1 1009.9
20260505220202 50 62 0.0 0.0 0.00 0.00 0.00 1 1009.9
20260505220005 50 0 0.0 0.0 0.00 0.00 0.00 1 1009.9
20260505215803 50 66 0.0 0.0 0.00 0.00 0.00 1 1009.9
20260505215602 50 0 0.0 0.0 0.00 0.00 0.00 1 1009.9
20260505215402 50 0 0.0 0.0 0.00 0.00 0.00 1 1010.0
20260505215203 50 0 0.0 0.0 0.00 0.00 0.00 1 1010.0
20260505215002 50 0 0.0 0.0 0.00 0.00 0.00 1 1010.0
20260505214803 50 56 0.0 0.0 0.00 0.00 0.00 1 1010.0
20260505214603 50 58 0.0 0.0 0.00 0.00 0.00 1 1010.1
20260505214402 50 65 0.0 0.0 0.00 0.00 0.00 1 1010.1
20260505214203 50 61 0.0 0.0 0.00 0.00 0.00 1 1010.0
20260505214004 50 56 0.0 0.0 0.00 0.00 0.00 1 1010.0
20260505213803 50 0 0.0 0.0 0.00 0.00 0.00 1 1010.2
20260505213603 50 79 0.0 0.0 0.00 0.00 0.00 1 1010.1
20260505213345 50 0 0.0 0.0 0.00 0.00 0.00 1 1010.1
20260505213138 50 0 0.0 0.0 0.00 0.00 0.00 1 1010.1
20260505212932 50 63 0.0 0.0 0.00 0.00 0.00 1 1010.1
20260505212731 50 62 0.0 0.0 0.00 0.00 0.00 1 1010.1
20260505212531 49 58 0.0 0.0 0.00 0.00 0.00 1 1010.1
20260505212331 50 61 0.0 0.0 0.00 0.00 0.00 1 1010.1
20260505212131 49 75 0.0 0.0 0.00 0.00 0.00 1 1010.2
20260505211931 49 80 0.0 0.0 0.00 0.00 0.00 1 1010.2
20260505211731 49 63 0.0 0.0 0.00 0.00 0.00 1 1010.1
20260505211531 49 56 0.0 0.0 0.00 0.00 0.00 1 1010.1
20260505211326 49 73 0.0 0.0 0.00 0.00 0.00 1 1010.2
20260505211115 49 0 0.0 0.0 0.00 0.00 0.00 1 1010.2
20260505210915 49 59 0.0 0.0 0.00 0.00 0.00 1 1010.2
20260505210715 49 103 0.0 0.0 0.00 0.00 0.00 1 1010.2
20260505210516 49 68 0.0 0.0 0.00 0.00 0.00 1 1010.2
20260505210315 50 54 0.0 0.0 0.00 0.00 0.00 1 1010.2
20260505210115 50 65 0.0 0.0 0.00 0.00 0.00 1 1010.2
20260505205916 50 65 0.0 0.0 0.00 0.00 0.00 1 1010.2
20260505205716 50 51 0.0 0.0 0.00 0.00 0.00 1 1010.1
20260505205518 50 0 0.0 0.0 0.00 0.00 0.00 1 1010.2
20260505205306 50 62 0.0 0.0 0.00 0.00 0.00 1 1010.2
20260505205106 50 72 0.0 0.0 0.00 0.00 0.00 1 1010.2
20260505204906 50 63 0.0 0.0 0.00 0.00 0.00 1 1010.2
20260505204706 50 0 0.0 0.0 0.00 0.00 0.00 1 1010.2
20260505204506 50 0 0.0 0.0 0.00 0.00 0.00 1 1010.2
20260505204306 50 80 0.0 0.0 0.00 0.00 0.00 1 1010.1
20260505204105 50 58 0.0 0.0 0.00 0.00 0.00 1 1010.2
20260505203906 50 76 0.0 1.0 0.00 0.00 0.00 1 1010.2
20260505203706 50 71 0.0 1.0 0.00 0.00 0.00 1 1010.1
20260505203506 50 83 0.0 1.0 0.00 0.00 0.00 1 1010.1
20260505203305 50 69 0.0 1.0 0.00 0.00 0.00 1 1010.2
20260505203034 50 80 0.0 0.0 0.00 0.00 0.00 1 1010.2
20260505202832 50 80 0.0 0.0 0.00 0.00 0.00 1 1010.2
20260505202631 50 0 0.0 1.0 0.00 0.00 0.00 1 1010.2
20260505202431 50 71 0.0 1.0 0.00 0.00 0.00 4 1010.2
20260505202232 51 0 0.0 1.0 0.00 0.00 0.00 4 1010.2
20260505202031 51 109 0.0 3.0 0.00 0.00 0.00 4 1010.2
20260505201820 51 58 0.0 3.0 0.00 0.00 0.00 4 1010.2
20260505201617 51 79 0.0 3.0 0.00 0.00 0.00 4 1010.1
20260505201415 51 0 0.0 3.0 0.00 0.00 0.00 5 1010.2
20260505201217 51 0 1.0 3.0 0.00 0.00 0.00 6 1010.1
20260505201015 51 68 0.0 3.0 0.00 0.00 0.00 6 1010.1
20260505200816 51 56 0.0 3.0 0.00 0.00 0.00 7 1010.1
20260505200616 51 56 0.0 1.0 0.00 0.00 0.00 8 1010.1
20260505200415 51 63 0.0 1.0 0.00 0.00 0.00 8 1010.2
20260505200214 51 56 0.0 2.0 0.00 0.00 0.00 8 1010.2
20260505200015 51 65 0.0 4.0 0.00 0.00 0.00 8 1010.1
20260505195814 51 75 0.0 4.0 0.00 0.00 0.00 10 1010.2
20260505195615 51 0 0.0 4.0 0.00 0.00 0.00 11 1010.1
20260505195415 51 0 0.0 4.0 0.00 0.00 0.00 12 1010.1
20260505195215 51 66 1.0 4.0 0.00 0.00 0.00 13 1010.2
20260505195015 51 0 0.0 2.0 0.00 0.00 0.00 14 1010.1
20260505194814 51 0 0.0 2.0 0.00 0.00 0.00 16 1010.1
20260505194615 51 58 0.0 2.0 0.00 0.00 0.00 16 1010.1
20260505194415 51 58 0.0 2.0 0.00 0.00 0.00 17 1010.2
20260505194214 51 0 0.0 1.0 0.00 0.00 0.00 17 1010.2
20260505194016 51 0 0.0 2.0 0.00 0.00 0.00 17 1010.1
20260505193815 51 0 0.0 2.0 0.00 0.00 0.00 19 1010.0
20260505193614 51 66 0.0 4.0 0.00 0.00 0.00 19 1010.1
20260505193416 51 61 0.0 4.0 0.00 0.00 0.00 20 1010.1
20260505193215 51 52 0.0 4.0 0.00 0.00 0.00 21 1010.0
20260505193014 51 0 0.0 4.0 0.00 0.00 0.00 21 1010.1
20260505192814 51 72 1.0 4.0 0.00 0.00 0.00 21 1010.1
20260505192614 51 76 0.0 3.0 0.00 0.00 0.00 22 1010.2
20260505192416 51 79 1.0 4.0 0.00 0.00 0.00 23 1010.1
20260505192214 51 68 0.0 4.0 0.00 0.00 0.00 24 1009.9
20260505192015 51 0 0.0 4.0 0.00 0.00 0.00 25 1010.0
20260505191815 51 0 1.0 5.0 0.00 0.00 0.00 26 1009.9
20260505191614 51 56 1.0 5.0 0.00 0.00 0.00 26 1009.9
20260505191414 51 78 2.0 5.0 0.00 0.00 0.00 27 1009.9
20260505191214 51 0 2.0 5.0 0.00 0.00 0.00 28 1009.9
20260505191015 51 71 2.0 5.0 0.00 0.00 0.00 28 1009.9
20260505190814 51 0 2.0 5.0 0.00 0.00 0.00 28 1009.8
20260505190615 51 62 2.0 6.0 0.00 0.00 0.00 29 1009.9
20260505190215 51 49 1.0 6.0 0.00 0.00 0.00 30 1009.9
20260505190014 51 0 2.0 6.0 0.00 0.00 0.00 32 1009.9
20260505185816 51 0 1.0 6.0 0.00 0.00 0.00 32 1009.8
20260505185615 51 0 0.0 6.0 0.00 0.00 0.00 32 1009.9
20260505185413 51 111 0.0 6.0 0.00 0.00 0.00 33 1009.9
20260505185213 51 0 1.0 6.0 0.00 0.00 0.00 34 1009.9
20260505185013 51 65 1.0 5.0 0.00 0.00 0.00 35 1009.8
20260505184814 51 0 0.0 1.0 0.00 0.00 0.00 36 1009.9
20260505184614 51 0 0.0 3.0 0.00 0.00 0.00 36 1009.9
20260505184413 51 79 0.0 4.0 0.00 0.00 0.00 37 1009.8
20260505184213 51 61 0.0 4.0 0.00 0.00 0.00 37 1009.9
20260505184014 52 72 0.0 4.0 0.00 0.00 0.00 39 1009.9
20260505183813 52 0 2.0 4.0 0.00 0.00 0.00 40 1009.9
20260505183614 52 65 1.0 4.0 0.00 0.00 0.00 40 1009.9
20260505183413 52 0 0.0 3.0 0.00 0.00 0.00 41 1009.9
20260505183213 52 0 0.0 5.0 0.00 0.00 0.00 41 1010.0
20260505183013 52 39 0.0 5.0 0.00 0.00 0.00 43 1010.0
20260505182812 52 0 0.0 5.0 0.00 0.00 0.00 46 1010.0
20260505182606 52 68 0.0 6.0 0.00 0.00 0.00 46 1010.0
20260505182404 52 69 1.0 10.0 0.00 0.00 0.00 48 1010.0
20260505182204 52 0 1.0 11.0 0.00 0.00 0.00 49 1010.0
20260505182003 52 61 2.0 11.0 0.00 0.00 0.00 49 1010.0
20260505181804 52 0 3.0 11.0 0.00 0.00 0.00 49 1010.0
20260505181604 52 61 4.0 11.0 0.00 0.00 0.00 49 1010.0
20260505181403 52 68 4.0 11.0 0.00 0.00 0.00 50 1010.0
20260505181203 52 82 3.0 10.0 0.00 0.00 0.00 51 1010.0
20260505181004 52 52 3.0 10.0 0.00 0.00 0.00 51 1009.9
20260505180804 52 0 5.0 9.0 0.00 0.00 0.00 50 1010.0
20260505180604 52 63 1.0 5.0 0.00 0.00 0.00 51 1010.0
20260505180404 52 72 0.0 7.0 0.00 0.00 0.00 51 1009.9
20260505180205 52 0 1.0 7.0 0.00 0.00 0.00 51 1010.0
20260505180007 52 73 2.0 7.0 0.00 0.00 0.00 51 1009.9
20260505175804 52 68 1.0 7.0 0.00 0.00 0.00 52 1009.9
20260505175604 52 59 3.0 7.0 0.00 0.00 0.00 52 1009.9
20260505175406 52 71 1.0 4.0 0.00 0.00 0.00 52 1009.9
20260505175203 52 75 0.0 2.0 0.00 0.00 0.00 52 1009.9
20260505175005 52 62 0.0 4.0 0.00 0.00 0.00 52 1009.9
20260505174803 52 48 0.0 5.0 0.00 0.00 0.00 52 1009.9
20260505174603 52 61 0.0 6.0 0.00 0.00 0.00 52 1009.9
20260505174405 52 0 0.0 9.0 0.00 0.00 0.00 52 1009.9
20260505174204 52 65 0.0 9.0 0.00 0.00 0.00 52 1009.9
20260505174005 52 0 4.0 9.0 0.00 0.00 0.00 54 1009.9
20260505173804 52 0 2.0 11.0 0.00 0.00 0.00 54 1009.9
20260505173604 52 0 3.0 11.0 0.00 0.00 0.00 54 1009.9
20260505173403 52 0 3.0 11.0 0.00 0.00 0.00 54 1009.8
20260505173204 52 111 3.0 11.0 0.00 0.00 0.00 54 1009.9
20260505173006 52 0 6.0 11.0 0.00 0.00 0.00 53 1009.9
20260505172804 52 0 1.0 7.0 0.00 0.00 0.00 54 1009.9
20260505172603 52 0 1.0 10.0 0.00 0.00 0.00 54 1009.9
20260505172404 52 66 2.0 10.0 0.00 0.00 0.00 54 1009.9
20260505172204 52 71 3.0 10.0 0.00 0.00 0.00 54 1009.9
20260505172005 53 0 4.0 10.0 0.00 0.00 0.00 54 1009.9
20260505171804 53 0 5.0 10.0 0.00 0.00 0.00 55 1009.9
20260505171605 53 0 4.0 9.0 0.00 0.00 0.00 55 1009.9
20260505171404 53 0 2.0 9.0 0.00 0.00 0.00 55 1009.8
20260505171204 53 72 2.0 9.0 0.00 0.00 0.00 55 1009.8
20260505171005 53 79 1.0 13.0 0.00 0.00 0.00 56 1009.8
20260505170804 53 0 2.0 13.0 0.00 0.00 0.00 56 1009.8
20260505170604 53 54 2.0 13.0 0.00 0.00 0.00 56 1009.8
20260505170404 53 65 5.0 13.0 0.00 0.00 0.00 56 1009.7
20260505170204 53 0 7.0 13.0 0.00 0.00 0.00 56 1009.9
20260505170006 53 79 1.0 11.0 0.00 0.00 0.00 56 1009.9
20260505165804 53 0 3.0 11.0 0.00 0.00 0.00 57 1009.9
20260505165605 53 72 4.0 11.0 0.00 0.00 0.00 56 1009.9
20260505165404 53 69 2.0 11.0 0.00 0.00 0.00 56 1010.0
20260505165203 53 71 4.0 13.0 0.00 0.00 0.00 56 1009.9
20260505165004 53 0 4.0 13.0 0.00 0.00 0.00 58 1009.9
20260505164804 53 69 6.0 13.0 0.00 0.00 0.00 58 1010.0
20260505164603 53 0 7.0 13.0 0.00 0.00 0.00 58 1010.0
20260505164403 53 72 6.0 13.0 0.00 0.00 0.00 59 1010.0
20260505164202 53 76 5.0 12.0 0.00 0.00 0.00 59 1010.1
20260505164003 53 0 6.0 12.0 0.00 0.00 0.00 58 1010.0
20260505163803 53 0 5.0 12.0 0.00 0.00 0.00 58 1010.0
20260505163603 53 104 5.0 12.0 0.00 0.00 0.00 58 1009.9